Flag for Poland Weather past 2 weeks in Toruń, Poland

Now
53 °F

Overcast.


Feels Like: 53 °F
Forecast: 44 / 57 °F
Wind: 3 mph from West

Location: Torun

Current Time: Sep 22, 2014 at 10:34:31 AM

Latest Report: Sep 22, 2014 at 9:00 AM


Visibility: 7 mi

Pressure: 29.68 "Hg

Humidity: 90%

Dew point: 50 °F

Location of ToruńLocation

Historic Weather in Toruń — Graph

°F

Toruń temperature yesterday

Maximum temperature yesterday: 71 °F (at 12:00 PM)
Minimum temperature yesterday: 47 °F (at 5:00 AM)
Average temperature yesterday: 57 °F

Past Weeks' High & Low Weather Summary

 TemperatureHumidityPressure
High81 °F (Sep 14, 3:00 PM)100% (Sep 9, 12:00 AM)30.25 "Hg (Sep 9, 12:00 AM)
Low47 °F (Sep 21, 5:00 AM)32% (Sep 14, 4:00 PM)29.67 "Hg (Sep 22, 5:00 AM)
Average62 °F73%30.04 "Hg
* Reported Sep 7 9:00 AM — Sep 22 9:00 AM, Toruń, Weather by CustomWeather, © 2014

Note: Actual official high and low records may vary slightly from our data, if they occured in-between our weather recording intervals... More about our weather records

Advertising

Toruń weather history for previous 24 hours

 ConditionsComfort  
Time TempWeatherWind HumidityBarometerVisibility
9:00 AM
Sep 22
53 °FOvercast.3 mph90%29.68 "Hg7 mi
8:00 AM52 °FFog.2 mph92%29.68 "Hg6 mi
7:00 AM53 °FFog.2 mph93%29.68 "Hg5 mi
6:00 AM54 °FOvercast.2 mph94%29.67 "Hg6 mi
5:00 AM54 °FOvercast.2 mph94%29.67 "Hg6 mi
4:00 AM55 °FSprinkles. Overcast.2 mph95%29.68 "Hg6 mi
3:00 AM56 °FFog.2 mph95%29.68 "Hg4 mi
2:00 AM57 °FFog.2 mph95%29.70 "Hg4 mi
1:00 AM57 °FFog.2 mph95%29.70 "Hg3 mi
12:00 AM57 °FFog.2 mph96%29.71 "Hg3 mi
11:00 PM
Sep 21
58 °FOvercast.2 mph95%29.71 "Hg4 mi
10:00 PM58 °FFog.1 mph94%29.72 "Hg4 mi
9:00 PM60 °FFog.2 mph97%29.73 "Hg2 mi
8:00 PM59 °FFog.No wind95%29.73 "Hg1 mi
7:00 PM60 °FFog.1 mph95%29.73 "Hg1 mi
6:00 PM61 °FFog.1 mph95%29.73 "Hg2 mi
5:00 PM62 °FThunderstorms. Low clouds.1 mph95%29.74 "Hg2 mi
4:00 PM61 °FThundershowers. Low clouds.1 mph95%29.75 "Hg2 mi
3:00 PM61 °FThundershowers. Overcast.2 mph93%29.76 "Hg1 mi
2:00 PM60 °FSprinkles. Overcast.2 mph86%29.77 "Hg6 mi
1:00 PM69 °FSprinkles. Overcast.2 mph68%29.78 "Hg6 mi
12:00 PM71 °FPartly sunny.3 mph65%29.78 "Hg6 mi
11:00 AM67 °FFog.2 mph72%29.80 "Hg4 mi
10:00 AM64 °FFog.2 mph79%29.81 "Hg3 mi
Weather by CustomWeather, © 2014

See weather overviewHow to use our weather pages